Content
SEND FEEDBACK

Daily
Averages
Monthly
Summary
India

AMRITSAR, INDIA


Home > Asia > India
Elevation: 752 feet     Latitude: 31 42N     Longitude: 074 47E

WEATHER
 
SELECT A DAY
Number of Records: 125,404;   Date Range: 7/1/96 - 8/31/14
 
SHARE

PRINT THIS DATA

[ ← Previous Day ]
WEATHER ALMANAC - MAY 3, 2013
[ Next Day → ]
[ °C ]   °F
Weather ElementAverageHighLow
Temperature83.6 °F100.4 °F (3:00 pm)66.2 °F (6:00 am)
Dewpoint43.4 °F48.2 °F (10:00 pm)37.4 °F (5:30 pm)
Humidity24.5 %49 % (6:30 am)6 % (5:30 pm)
Barometer29.54 in29.62 in (9:30 am)29.43 in (5:30 pm)
Wind Speed3.3 mph11.5 mph (11:30 am)
Weather ElementAverage
Visibility2.4 mi
Wind DirectionESE (113.6 °)

Weather ElementTotal
Precipitation---
Cooling Degree Days18.3 (Base 65)
Growing Degree Days33.3 (Base 50)
Averaged from 31 records on May 3, 2013
WEATHER CONDITIONS BREAKOUT
WIND DIRECTION BREAKOUT
WEATHER BY HOUR - MAY 3, 2013
[ °C ]   °F
Local TimeTemperatureDewpointHumidityBarometerVisibilityWind DirectionWind SpeedGust SpeedPrecipitationEventsConditions
1:30 AM71.6 °F42.8 °F35 %29.56 in1.9 miCalmSmoke
2:30 AM71.0 °F44.0 °F26 %1.0 miCalmHaze
3:00 AM69.8 °F44.6 °F40 %29.53 in1.9 miCalmHaze
3:30 AM71.6 °F42.8 °F35 %29.53 in1.9 miCalmHaze
5:30 AM68.0 °F45.0 °F32 %29.52 in1.0 miCalmHaze
5:30 AM68.0 °F44.6 °F43 %29.53 in1.9 miCalmHaze
6:00 AM66.2 °F44.6 °F46 %29.53 in1.9 miCalmHaze
6:30 AM66.2 °F46.4 °F49 %29.53 in1.9 miCalmHaze
7:30 AM71.6 °F46.4 °F41 %29.56 in2.2 miCalmHaze
8:30 AM81.0 °F47.0 °F20 %29.54 in2.0 mi°2.3 mphHaze
8:30 AM80.6 °F46.4 °F30 %29.56 in2.2 miVariable2.3 mphHaze
9:00 AM84.2 °F46.4 °F27 %29.56 in2.2 miVariable2.3 mphHaze
9:30 AM87.8 °F39.2 °F18 %29.62 in2.2 miWest (270°)8.1 mphHaze
10:00 AM89.6 °F44.6 °F21 %29.59 in2.5 miWNW (300°)5.8 mph
10:30 AM93.2 °F44.6 °F19 %29.59 in2.5 miWNW (300°)9.2 mph
11:00 AM93.2 °F44.6 °F19 %29.59 in2.5 miWest (270°)8.1 mph
11:30 AM95.0 °F41.0 °F8 %29.52 in2.0 miWest (270°)11.5 mphWidespread Dust
12:00 PM95.0 °F41.0 °F15 %29.56 in3.1 miNW (310°)9.2 mph
12:30 PM96.8 °F41.0 °F15 %29.56 in3.1 miWSW (250°)9.2 mph
1:00 PM98.6 °F42.8 °F15 %29.56 in3.7 miWest (270°)6.9 mph
2:30 PM100.0 °F41.0 °F7 %29.47 in6.0 miNW (320°)10.4 mph
3:00 PM100.4 °F39.2 °F12 %29.50 inWest (280°)6.9 mphClear
5:30 PM98.6 °F37.4 °F12 %29.50 in4.3 miVariable5.8 mph
5:30 PM99.0 °F38.0 °F6 %29.43 in2.0 mi°5.8 mph
8:00 PM86.0 °F44.6 °F23 %29.50 in2.5 miCalmSmoke
8:30 PM85.0 °F40.0 °F12 %29.49 in2.0 miCalmHaze
9:00 PM84.2 °F41.0 °F22 %29.53 in2.5 miCalmHaze
9:30 PM84.2 °F41.0 °F22 %29.56 in2.5 miCalmHaze
10:00 PM78.8 °F48.2 °F34 %29.56 in2.5 miCalmHaze
11:30 PM78.0 °F47.0 °F23 %29.52 in1.0 miCalmSmoke
11:30 PM78.8 °F48.2 °F34 %29.53 in1.9 miCalm
Hourly data recorded from VIAR, located miles away from Amritsar, India







STORIES FROM OUR PARTNERS